Bradshaw AFB, HI

7:39 AM HST on November 22, 2019 (GMT -1000)
Bradshaw Army Air Field

Weather History for PHSF - August, 2019

Change the Weather History Date:

Friday, August 23, 2019

  Actual Average Record
Temperature  
Mean Temperature 66 °F -  
Max Temperature 79 °F 71 °F 79 °F (2019)
Min Temperature 53 °F 50 °F 42 °F (1997)
Cooling Degree Days 1    
Growing Degree Days 16 (Base 50)    
Moisture  
Dew Point 44 °F    
Average Humidity 51    
Maximum Humidity 73    
Minimum Humidity 25    
Precipitation  
Precipitation 0.00 in - - ()
Sea Level Pressure  
Sea Level Pressure 29.92 in    
Wind  
Wind Speed 10 mph (South)    
Max Wind Speed 18 mph    
Max Gust Speed 26 mph    
Visibility 9 miles    
Events      
Averages and records for this station are not official NWS values.
T = Trace of Precipitation, MM = Missing Value Source: NWS Daily Summary

Daily Weather History Graph

Daily Weather History Graph

Search for Another Location

Airport or City:

Astronomy

Aug. 23, 2019 Rise Set
Actual Time 6:04 AM HST 6:44 PM HST
Civil Twilight 5:42 AM HST 7:07 PM HST
Nautical Twilight 5:15 AM HST 7:33 PM HST
Astronomical Twilight 4:48 AM HST 8:00 PM HST
Moon No Moon Rise 12:52 PM HST (8/23)
Length of Visible Light 13h 25m
Length of Day
12h 40m
Waning Gibbous, 47% of the Moon is Illuminated
Aug 23
Waning Gibbous
Aug 30
New
Sep 5
First Quarter
Sep 13
Full
Sep 21
Last Quarter

Hourly Weather History & Observations

Time (HST) Temp. Dew Point Humidity Pressure Visibility Wind Dir Wind Speed Gust Speed Precip Events Conditions
12:56 AM 58.5 °F 37.0 °F 45% 29.89 in 10.0 mi South 11.5 mph - N/A   Clear
1:56 AM 58.6 °F 40.5 °F 51% 29.89 in 10.0 mi South 12.7 mph - N/A   Clear
2:56 AM 59.4 °F 40.3 °F 49% 29.87 in 10.0 mi SSE 13.8 mph - N/A   Clear
3:56 AM 59.0 °F 38.1 °F 46% 29.88 in 10.0 mi South 13.8 mph 20.7 mph N/A   Clear
4:56 AM 59.2 °F 32.2 °F 36% 29.89 in 10.0 mi South 11.5 mph 19.6 mph N/A   Clear
5:56 AM 63.5 °F 35.8 °F 36% 29.90 in 10.0 mi SE 5.8 mph - N/A   Clear
6:56 AM 63.0 °F 35.1 °F 35% 29.94 in 10.0 mi SE 5.8 mph - N/A   Partly Cloudy
7:56 AM 70.5 °F 36.5 °F 29% 29.93 in 10.0 mi SSE 13.8 mph 19.6 mph N/A   Clear
8:56 AM 73.4 °F 37.0 °F 27% 29.92 in 10.0 mi SSE 15.0 mph 21.9 mph N/A   Clear
9:56 AM 75.4 °F 37.6 °F 25% 29.91 in 10.0 mi South 18.4 mph 23.0 mph N/A   Clear
10:56 AM 79.0 °F 39.9 °F 25% 29.87 in 10.0 mi South 17.3 mph 26.5 mph N/A   Clear
11:56 AM 79.3 °F 43.7 °F 28% 29.89 in 10.0 mi WSW 15.0 mph 21.9 mph N/A   Partly Cloudy
12:56 PM 74.5 °F 60.1 °F 61% 29.91 in 10.0 mi WSW 11.5 mph - N/A   Clear
1:56 PM 75.4 °F 60.1 °F 59% 29.89 in 10.0 mi West 12.7 mph 18.4 mph N/A   Clear
2:56 PM 73.9 °F 60.6 °F 63% 29.89 in 10.0 mi West 10.4 mph - N/A   Clear
3:56 PM 71.4 °F 60.4 °F 68% 29.90 in 10.0 mi West 6.9 mph - N/A   Partly Cloudy
4:56 PM 68.5 °F 57.9 °F 69% 29.90 in 10.0 mi WSW 6.9 mph - N/A   Partly Cloudy
5:56 PM 65.7 °F 56.8 °F 73% 29.91 in 10.0 mi WSW 4.6 mph - N/A   Partly Cloudy
6:56 PM 64.9 °F 42.4 °F 44% 29.92 in 10.0 mi Calm Calm - N/A   Clear
7:56 PM 58.8 °F 49.5 °F 71% 29.94 in 10.0 mi West 3.5 mph - N/A   Clear
8:56 PM 57.9 °F 42.6 °F 57% 29.96 in 10.0 mi Calm Calm - N/A   Clear
9:56 PM 55.8 °F 42.1 °F 60% 29.96 in 10.0 mi North 3.5 mph - N/A   Clear
10:36 PM 53.6 °F 42.8 °F 67% 29.96 in 2.8 mi SE 3.5 mph - N/A   Haze
10:41 PM 55.4 °F 42.8 °F 63% 29.96 in 1.8 mi SE 4.6 mph - N/A   Haze
10:46 PM 55.4 °F 42.8 °F 63% 29.96 in 2.5 mi Calm Calm - N/A   Haze
10:51 PM 55.4 °F 42.8 °F 63% 29.96 in 5.0 mi SE 4.6 mph - N/A   Haze
10:56 PM 54.3 °F 43.3 °F 66% 29.96 in 10.0 mi SE 3.5 mph - N/A   Clear
11:56 PM 54.3 °F 41.7 °F 62% 29.94 in 3.0 mi SE 4.6 mph - N/A   Haze